BEIDOU-3 M14

Last updated on Mon Jul 07 2025 00:02:32 GMT+0000 (Coordinated Universal Time)

1 43623U 18072B 25187.06546543 -.00000071 00000+0 00000+0 0 9999 2 43623 56.3179 74.1018 0005395 358.5550 1.4882 1.86231549 46209
UTC large
Height (km)
Speed (km/s)
/
Latitude / Longitude
Inclination (degrees)
Orbital Period (minutes)
Azimuth
Elevation
Range (km)
Doppler Factor

Next 0 passes for location: London (51.5072 / 0.1276)

Sorry there are no passes over London.